Time,TemperatureF,DewpointF,PressureIn,WindDirection,WindDirectionDegrees,WindSpeedMPH,WindSpeedGustMPH,Humidity,HourlyPrecipIn,Conditions,Clouds,dailyrainin,SoftwareType,DateUTC
2013-01-03 00:02:00,-7.0,-10.0,-100.00,ESE,120,5.0,6.0,85,0.00,,,-99.99,,2013-01-03 07:02:00,
2013-01-03 00:12:00,-6.0,-10.0,-100.00,ESE,107,1.0,2.0,86,0.00,,,-99.99,,2013-01-03 07:12:00,
2013-01-03 00:22:00,-9.0,-12.0,-100.00,NE,47,2.0,2.0,84,0.00,,,-99.99,,2013-01-03 07:22:00,
2013-01-03 00:32:00,-9.0,-12.0,-100.00,NE,47,2.0,2.0,84,0.00,,,-99.99,,2013-01-03 07:32:00,
2013-01-03 00:42:00,-7.0,-10.0,-100.00,East,85,4.0,5.0,87,0.00,,,-99.99,,2013-01-03 07:42:00,
2013-01-03 00:52:00,-8.0,-12.0,-100.00,NE,51,4.0,5.0,84,0.00,,,-99.99,,2013-01-03 07:52:00,
2013-01-03 01:02:00,-8.0,-12.0,-100.00,NE,51,4.0,5.0,84,0.00,,,-99.99,,2013-01-03 08:02:00,
2013-01-03 01:11:00,-8.0,-12.0,-100.00,NE,51,4.0,5.0,84,0.00,,,-99.99,,2013-01-03 08:11:00,
2013-01-03 01:22:00,-7.0,-10.0,-100.00,NE,55,3.0,4.0,86,0.00,,,-99.99,,2013-01-03 08:22:00,
2013-01-03 01:32:00,-7.0,-10.0,-100.00,NE,55,3.0,4.0,86,0.00,,,-99.99,,2013-01-03 08:32:00,
2013-01-03 01:42:00,-7.0,-10.0,-100.00,ENE,72,2.0,2.0,86,0.00,,,-99.99,,2013-01-03 08:42:00,
2013-01-03 01:53:00,-6.0,-9.0,-100.00,East,83,1.0,2.0,86,0.00,,,-99.99,,2013-01-03 08:53:00,
2013-01-03 02:02:00,-6.0,-9.0,-100.00,SE,124,3.0,4.0,85,0.00,,,-99.99,,2013-01-03 09:02:00,
2013-01-03 02:11:00,-6.0,-9.0,-100.00,SE,124,3.0,4.0,85,0.00,,,-99.99,,2013-01-03 09:11:00,
2013-01-03 02:22:00,-6.0,-9.0,-100.00,SE,124,3.0,4.0,85,0.00,,,-99.99,,2013-01-03 09:22:00,
2013-01-03 02:33:00,-6.0,-9.0,-100.00,SE,124,3.0,4.0,85,0.00,,,-99.99,,2013-01-03 09:33:00,
2013-01-03 02:42:00,-6.0,-9.0,-100.00,NW,309,1.0,2.0,86,0.00,,,-99.99,,2013-01-03 09:42:00,
2013-01-03 02:53:00,-7.0,-10.0,-100.00,NE,37,1.0,1.0,85,0.00,,,-99.99,,2013-01-03 09:53:00,
2013-01-03 03:02:00,-7.0,-10.0,-100.00,NE,37,1.0,1.0,85,0.00,,,-99.99,,2013-01-03 10:02:00,
2013-01-03 03:12:00,-7.0,-10.0,-100.00,NE,37,1.0,1.0,85,0.00,,,-99.99,,2013-01-03 10:12:00,
2013-01-03 03:22:00,-7.0,-10.0,-100.00,WSW,254,0.0,1.0,86,0.00,,,-99.99,,2013-01-03 10:22:00,
2013-01-03 03:32:00,-7.0,-10.0,-100.00,NNE,21,1.0,2.0,85,0.00,,,-99.99,,2013-01-03 10:32:00,
2013-01-03 03:42:00,-7.0,-10.0,-100.00,NNE,21,1.0,2.0,85,0.00,,,-99.99,,2013-01-03 10:42:00,
2013-01-03 03:52:00,-7.0,-11.0,-100.00,NNE,27,1.0,2.0,85,0.00,,,-99.99,,2013-01-03 10:52:00,
2013-01-03 04:02:00,-7.0,-11.0,-100.00,NNE,27,1.0,2.0,85,0.00,,,-99.99,,2013-01-03 11:02:00,
2013-01-03 04:11:00,-7.0,-10.0,-100.00,NE,52,1.0,2.0,85,0.00,,,-99.99,,2013-01-03 11:11:00,
2013-01-03 04:22:00,-7.0,-10.0,-100.00,NE,52,1.0,2.0,85,0.00,,,-99.99,,2013-01-03 11:22:00,
2013-01-03 04:32:00,-7.0,-10.0,-100.00,NE,52,1.0,2.0,85,0.00,,,-99.99,,2013-01-03 11:32:00,
2013-01-03 04:42:00,-7.0,-10.0,-100.00,NNW,340,0.0,1.0,85,0.00,,,-99.99,,2013-01-03 11:42:00,
2013-01-03 04:53:00,-12.0,-15.0,-100.00,SE,124,4.0,5.0,83,0.00,,,-99.99,,2013-01-03 11:53:00,
2013-01-03 05:02:00,-12.0,-15.0,-100.00,SE,124,4.0,5.0,83,0.00,,,-99.99,,2013-01-03 12:02:00,
2013-01-03 05:12:00,-12.0,-16.0,-100.00,SE,136,1.0,2.0,82,0.00,,,-99.99,,2013-01-03 12:12:00,
2013-01-03 05:22:00,-11.0,-15.0,-100.00,ESE,103,0.0,1.0,84,0.00,,,-99.99,,2013-01-03 12:22:00,
2013-01-03 05:32:00,-11.0,-15.0,-100.00,ESE,103,0.0,1.0,84,0.00,,,-99.99,,2013-01-03 12:32:00,
2013-01-03 05:42:00,-11.0,-15.0,-100.00,NNE,31,1.0,2.0,83,0.00,,,-99.99,,2013-01-03 12:42:00,
2013-01-03 05:53:00,-11.0,-15.0,-100.00,NNE,31,1.0,2.0,83,0.00,,,-99.99,,2013-01-03 12:53:00,
2013-01-03 06:02:00,-11.0,-15.0,-100.00,NNE,31,1.0,2.0,83,0.00,,,-99.99,,2013-01-03 13:02:00,
2013-01-03 06:12:00,-10.0,-14.0,-100.00,NE,47,2.0,3.0,84,0.00,,,-99.99,,2013-01-03 13:12:00,
2013-01-03 06:22:00,-10.0,-14.0,-100.00,NE,51,3.0,4.0,83,0.00,,,-99.99,,2013-01-03 13:22:00,
2013-01-03 06:32:00,-10.0,-14.0,-100.00,NE,51,3.0,4.0,83,0.00,,,-99.99,,2013-01-03 13:32:00,
2013-01-03 06:42:00,-10.0,-13.0,-100.00,NE,38,2.0,3.0,84,0.00,,,-99.99,,2013-01-03 13:42:00,
2013-01-03 06:53:00,-8.0,-12.0,-100.00,NE,45,2.0,3.0,84,0.00,,,-99.99,,2013-01-03 13:53:00,
2013-01-03 07:02:00,-8.0,-12.0,-100.00,NE,45,2.0,3.0,84,0.00,,,-99.99,,2013-01-03 14:02:00,
2013-01-03 07:12:00,-9.0,-13.0,-100.00,NE,54,2.0,3.0,84,0.00,,,-99.99,,2013-01-03 14:12:00,
2013-01-03 07:22:00,-8.0,-11.0,-100.00,NE,45,2.0,2.0,85,0.00,,,-99.99,,2013-01-03 14:22:00,
2013-01-03 07:32:00,-8.0,-11.0,-100.00,NE,45,2.0,2.0,85,0.00,,,-99.99,,2013-01-03 14:32:00,
2013-01-03 07:42:00,-9.0,-12.0,-100.00,NE,54,2.0,3.0,84,0.00,,,-99.99,,2013-01-03 14:42:00,
2013-01-03 07:53:00,-9.0,-12.0,-100.00,ENE,76,1.0,2.0,83,0.00,,,-99.99,,2013-01-03 14:53:00,
2013-01-03 08:02:00,-9.0,-12.0,-100.00,ENE,76,1.0,2.0,83,0.00,,,-99.99,,2013-01-03 15:02:00,
2013-01-03 08:12:00,-9.0,-13.0,-100.00,NE,54,2.0,2.0,84,0.00,,,-99.99,,2013-01-03 15:12:00,
2013-01-03 08:22:00,-8.0,-12.0,-100.00,NE,41,2.0,3.0,85,0.00,,,-99.99,,2013-01-03 15:22:00,
2013-01-03 08:33:00,-8.0,-12.0,-100.00,NE,41,2.0,3.0,85,0.00,,,-99.99,,2013-01-03 15:33:00,
2013-01-03 08:42:00,-8.0,-11.0,-100.00,NNE,27,3.0,4.0,85,0.00,,,-99.99,,2013-01-03 15:42:00,
2013-01-03 08:53:00,-8.0,-12.0,-100.00,NNE,28,2.0,3.0,85,0.00,,,-99.99,,2013-01-03 15:53:00,
2013-01-03 09:02:00,-8.0,-12.0,-100.00,NNE,28,2.0,3.0,85,0.00,,,-99.99,,2013-01-03 16:02:00,
2013-01-03 09:12:00,-7.0,-10.0,-100.00,NNE,23,3.0,3.0,86,0.00,,,-99.99,,2013-01-03 16:12:00,
2013-01-03 09:22:00,-6.0,-9.0,-100.00,NE,37,2.0,4.0,87,0.00,,,-99.99,,2013-01-03 16:22:00,
2013-01-03 09:32:00,-6.0,-9.0,-100.00,NE,37,2.0,4.0,87,0.00,,,-99.99,,2013-01-03 16:32:00,
2013-01-03 09:42:00,-4.0,-7.0,-100.00,NE,35,4.0,5.0,87,0.00,,,-99.99,,2013-01-03 16:42:00,
2013-01-03 09:53:00,-3.0,-5.0,-100.00,NNW,343,0.0,1.0,89,0.00,,,-99.99,,2013-01-03 16:53:00,
2013-01-03 10:02:00,-3.0,-5.0,-100.00,NNW,343,0.0,1.0,89,0.00,,,-99.99,,2013-01-03 17:02:00,
2013-01-03 10:12:00,-2.0,-4.0,-100.00,North,350,1.0,2.0,89,0.00,,,-99.99,,2013-01-03 17:12:00,
2013-01-03 10:22:00,-2.0,-4.0,-100.00,North,350,1.0,2.0,89,0.00,,,-99.99,,2013-01-03 17:22:00,
2013-01-03 10:32:00,-2.0,-4.0,-100.00,North,350,1.0,2.0,89,0.00,,,-99.99,,2013-01-03 17:32:00,
2013-01-03 10:42:00,1.0,-1.0,-100.00,NNE,25,2.0,3.0,90,0.00,,,-99.99,,2013-01-03 17:42:00,
2013-01-03 10:53:00,4.0,2.0,-100.00,ENE,65,1.0,2.0,92,0.00,,,-99.99,,2013-01-03 17:53:00,
2013-01-03 11:03:00,4.0,2.0,-100.00,ENE,65,1.0,2.0,92,0.00,,,-99.99,,2013-01-03 18:03:00,
2013-01-03 11:12:00,4.0,2.0,-100.00,ENE,65,1.0,2.0,92,0.00,,,-99.99,,2013-01-03 18:12:00,
2013-01-03 11:22:00,6.0,4.0,-100.00,ESE,104,1.0,1.0,93,0.00,,,-99.99,,2013-01-03 18:22:00,
2013-01-03 11:33:00,6.0,4.0,-100.00,ESE,104,1.0,1.0,93,0.00,,,-99.99,,2013-01-03 18:33:00,
2013-01-03 11:42:00,4.0,2.0,-100.00,NE,44,3.0,4.0,91,0.00,,,-99.99,,2013-01-03 18:42:00,
2013-01-03 11:53:00,6.0,4.0,-100.00,NE,42,6.0,7.0,93,0.00,,,-99.99,,2013-01-03 18:53:00,
2013-01-03 12:03:00,6.0,4.0,-100.00,NE,42,6.0,7.0,93,0.00,,,-99.99,,2013-01-03 19:03:00,
2013-01-03 12:12:00,6.0,4.0,-100.00,NE,47,7.0,9.0,92,0.00,,,-99.99,,2013-01-03 19:12:00,
2013-01-03 12:56:00,10.0,9.0,-100.00,NNE,30,6.0,11.0,94,0.00,,,-99.99,,2013-01-03 19:56:00,
2013-01-03 13:02:00,10.0,9.0,-100.00,NNE,30,6.0,11.0,94,0.00,,,-99.99,,2013-01-03 20:02:00,
2013-01-03 13:12:00,11.0,9.0,-100.00,NE,41,8.0,10.0,94,0.00,,,-99.99,,2013-01-03 20:12:00,
2013-01-03 13:22:00,11.0,9.0,-100.00,NE,42,8.0,10.0,94,0.00,,,-99.99,,2013-01-03 20:22:00,
2013-01-03 13:33:00,11.0,9.0,-100.00,NE,42,8.0,10.0,94,0.00,,,-99.99,,2013-01-03 20:33:00,
2013-01-03 13:42:00,12.0,10.0,-100.00,NE,41,9.0,10.0,94,0.00,,,-99.99,,2013-01-03 20:42:00,
2013-01-03 13:53:00,13.0,11.0,-100.00,NE,42,9.0,11.0,93,0.00,,,-99.99,,2013-01-03 20:53:00,
2013-01-03 14:02:00,14.0,12.0,-100.00,NE,37,8.0,10.0,91,0.00,,,-99.99,,2013-01-03 21:02:00,
2013-01-03 14:22:00,14.0,11.0,-100.00,NE,34,11.0,12.0,87,0.00,,,-99.99,,2013-01-03 21:22:00,
2013-01-03 14:34:00,14.0,11.0,-100.00,NE,34,11.0,12.0,87,0.00,,,-99.99,,2013-01-03 21:34:00,
2013-01-03 14:46:00,14.0,11.0,-100.00,NE,34,11.0,12.0,87,0.00,,,-99.99,,2013-01-03 21:46:00,
2013-01-03 14:53:00,15.0,11.0,-100.00,NNE,28,9.0,11.0,83,0.00,,,-99.99,,2013-01-03 21:53:00,
2013-01-03 15:02:00,15.0,11.0,-100.00,NNE,28,9.0,11.0,83,0.00,,,-99.99,,2013-01-03 22:02:00,
2013-01-03 15:12:00,15.0,11.0,-100.00,NNE,24,10.0,11.0,82,0.00,,,-99.99,,2013-01-03 22:12:00,
2013-01-03 15:22:00,16.0,11.0,-100.00,NNE,20,9.0,10.0,79,0.00,,,-99.99,,2013-01-03 22:22:00,
2013-01-03 15:32:00,16.0,11.0,-100.00,NNE,20,9.0,10.0,79,0.00,,,-99.99,,2013-01-03 22:32:00,
2013-01-03 15:43:00,17.0,11.0,-100.00,NNE,20,8.0,10.0,78,0.00,,,-99.99,,2013-01-03 22:43:00,
2013-01-03 15:52:00,17.0,11.0,-100.00,NNE,23,9.0,10.0,78,0.00,,,-99.99,,2013-01-03 22:52:00,
2013-01-03 16:02:00,17.0,11.0,-100.00,NNE,23,9.0,10.0,78,0.00,,,-99.99,,2013-01-03 23:02:00,
2013-01-03 16:12:00,16.0,10.0,-100.00,NNE,23,7.0,9.0,77,0.00,,,-99.99,,2013-01-03 23:12:00,
2013-01-03 16:22:00,17.0,10.0,-100.00,NE,34,6.0,8.0,77,0.00,,,-99.99,,2013-01-03 23:22:00,
2013-01-03 16:32:00,17.0,10.0,-100.00,NE,34,6.0,8.0,77,0.00,,,-99.99,,2013-01-03 23:32:00,
2013-01-03 16:42:00,17.0,10.0,-100.00,NNE,32,5.0,8.0,74,0.00,,,-99.99,,2013-01-03 23:42:00,
2013-01-03 16:53:00,16.0,10.0,-100.00,NE,45,4.0,6.0,76,0.00,,,-99.99,,2013-01-03 23:53:00,
2013-01-03 17:02:00,16.0,10.0,-100.00,NE,45,4.0,6.0,76,0.00,,,-99.99,,2013-01-04 00:02:00,
2013-01-03 17:12:00,16.0,10.0,-100.00,NE,45,4.0,6.0,76,0.00,,,-99.99,,2013-01-04 00:12:00,
2013-01-03 17:22:00,14.0,9.0,-100.00,NE,37,6.0,8.0,78,0.00,,,-99.99,,2013-01-04 00:22:00,
2013-01-03 17:32:00,14.0,9.0,-100.00,NE,37,6.0,8.0,78,0.00,,,-99.99,,2013-01-04 00:32:00,
2013-01-03 17:42:00,13.0,8.0,-100.00,NE,42,5.0,7.0,79,0.00,,,-99.99,,2013-01-04 00:42:00,
2013-01-03 17:52:00,10.0,6.0,-100.00,NE,56,4.0,5.0,82,0.00,,,-99.99,,2013-01-04 00:52:00,
2013-01-03 18:02:00,10.0,6.0,-100.00,NE,56,4.0,5.0,82,0.00,,,-99.99,,2013-01-04 01:02:00,
2013-01-03 18:12:00,10.0,6.0,-100.00,ENE,61,3.0,4.0,83,0.00,,,-99.99,,2013-01-04 01:12:00,
2013-01-03 18:22:00,9.0,5.0,-100.00,NNE,31,9.0,10.0,84,0.00,,,-99.99,,2013-01-04 01:22:00,
2013-01-03 18:32:00,9.0,5.0,-100.00,NNE,31,9.0,10.0,84,0.00,,,-99.99,,2013-01-04 01:32:00,
2013-01-03 18:42:00,9.0,5.0,-100.00,NNE,18,8.0,10.0,84,0.00,,,-99.99,,2013-01-04 01:42:00,
2013-01-03 18:52:00,9.0,4.0,-100.00,ENE,69,4.0,4.0,82,0.00,,,-99.99,,2013-01-04 01:52:00,
2013-01-03 19:02:00,9.0,4.0,-100.00,ENE,69,4.0,4.0,82,0.00,,,-99.99,,2013-01-04 02:02:00,
2013-01-03 19:12:00,7.0,4.0,-100.00,ENE,71,4.0,5.0,86,0.00,,,-99.99,,2013-01-04 02:12:00,
2013-01-03 19:22:00,7.0,4.0,-100.00,ENE,71,4.0,5.0,86,0.00,,,-99.99,,2013-01-04 02:22:00,
2013-01-03 19:32:00,7.0,4.0,-100.00,ENE,71,4.0,5.0,86,0.00,,,-99.99,,2013-01-04 02:32:00,
2013-01-03 19:42:00,6.0,3.0,-100.00,ENE,69,2.0,3.0,86,0.00,,,-99.99,,2013-01-04 02:42:00,
2013-01-03 19:53:00,6.0,3.0,-100.00,SSE,155,0.0,1.0,87,0.00,,,-99.99,,2013-01-04 02:53:00,
2013-01-03 20:02:00,6.0,3.0,-100.00,SSE,155,0.0,1.0,87,0.00,,,-99.99,,2013-01-04 03:02:00,
2013-01-03 20:12:00,8.0,5.0,-100.00,NW,323,2.0,3.0,87,0.00,,,-99.99,,2013-01-04 03:12:00,
2013-01-03 20:22:00,5.0,2.0,-100.00,NNW,329,2.0,3.0,86,0.00,,,-99.99,,2013-01-04 03:22:00,
2013-01-03 20:32:00,5.0,2.0,-100.00,NNW,329,2.0,3.0,86,0.00,,,-99.99,,2013-01-04 03:32:00,
2013-01-03 20:42:00,3.0,0.0,-100.00,South,175,1.0,2.0,88,0.00,,,-99.99,,2013-01-04 03:42:00,
2013-01-03 20:52:00,4.0,1.0,-100.00,North,356,2.0,3.0,90,0.00,,,-99.99,,2013-01-04 03:52:00,
2013-01-03 21:02:00,4.0,1.0,-100.00,North,356,2.0,3.0,90,0.00,,,-99.99,,2013-01-04 04:02:00,
2013-01-03 21:12:00,3.0,1.0,-100.00,ESE,103,1.0,1.0,90,0.00,,,-99.99,,2013-01-04 04:12:00,
2013-01-03 21:22:00,3.0,1.0,-100.00,ESE,103,1.0,1.0,90,0.00,,,-99.99,,2013-01-04 04:22:00,
2013-01-03 21:32:00,3.0,1.0,-100.00,ESE,103,1.0,1.0,90,0.00,,,-99.99,,2013-01-04 04:32:00,
2013-01-03 21:42:00,3.0,1.0,-100.00,WNW,299,1.0,2.0,90,0.00,,,-99.99,,2013-01-04 04:42:00,
2013-01-03 21:52:00,4.0,2.0,-100.00,SW,222,3.0,4.0,93,0.00,,,-99.99,,2013-01-04 04:52:00,
2013-01-03 22:03:00,4.0,2.0,-100.00,SW,222,3.0,4.0,93,0.00,,,-99.99,,2013-01-04 05:03:00,
2013-01-03 22:12:00,5.0,3.0,-100.00,SE,124,2.0,5.0,92,0.00,,,-99.99,,2013-01-04 05:12:00,
2013-01-03 22:22:00,-1.0,-4.0,-100.00,NE,52,4.0,6.0,87,0.00,,,-99.99,,2013-01-04 05:22:00,
2013-01-03 22:32:00,-1.0,-4.0,-100.00,NE,52,4.0,6.0,87,0.00,,,-99.99,,2013-01-04 05:32:00,
2013-01-03 22:42:00,-1.0,-4.0,-100.00,NE,52,4.0,6.0,87,0.00,,,-99.99,,2013-01-04 05:42:00,
2013-01-03 22:52:00,-1.0,-3.0,-100.00,NE,38,4.0,4.0,89,0.00,,,-99.99,,2013-01-04 05:52:00,
2013-01-03 23:02:00,-1.0,-3.0,-100.00,NE,38,4.0,4.0,89,0.00,,,-99.99,,2013-01-04 06:02:00,
2013-01-03 23:12:00,-1.0,-4.0,-100.00,NE,44,2.0,3.0,89,0.00,,,-99.99,,2013-01-04 06:12:00,
2013-01-03 23:22:00,-2.0,-5.0,-100.00,North,356,3.0,4.0,88,0.00,,,-99.99,,2013-01-04 06:22:00,
2013-01-03 23:32:00,-2.0,-5.0,-100.00,North,356,3.0,4.0,88,0.00,,,-99.99,,2013-01-04 06:32:00,
2013-01-03 23:42:00,-2.0,-5.0,-100.00,ENE,62,2.0,3.0,89,0.00,,,-99.99,,2013-01-04 06:42:00,
2013-01-03 23:52:00,-1.0,-3.0,-100.00,ENE,61,5.0,6.0,90,0.00,,,-99.99,,2013-01-04 06:52:00,